Voltar ao catálogo

KUIPER-00587

AtivoComunicaçõesLEO
NORAD 69275·PAYLOAD·🇺🇸 United States

Lançado May 29, 2026 de Vandenberg Space Force Base

Loading…

Próximas Passagens (próximas 24 horas)

TLE

AtualizadoSource: CelesTrak SupGP

Época: Sep 14, 2026, 17:28 UTC

1 69275C 26118J   26257.72790509  .00008534  00000+0  11173-2 0  2579
2 69275  51.9019 359.7175 0000711  86.2432 123.2392 14.79919395    17

Acompanhe KUIPER-00587 em tempo real com AllMySat

Download on the App Store